Location: Conflandey
(47.7287°N, 6.0456°E)
Time: 03:32:26
(UTC+00:00)

ATLAS 5 CENTAUR R/B - Pass Details

Date: 24 October 2021
Orbit: 497 x 1159 km, 63.4° (Epoch: 25 November)

Event Time Altitude Azimuth Distance (km) Brightness Sun altitude
Rises 19:35:21 0° 291° (WNW) 2,771 6.1 -31.4°
Reaches altitude 10° 19:38:32 10° 319° (NW) 1,982 4.8 -31.9°
Maximum altitude 19:40:51 14° 350° (N) 1,831 4.2 -32.3°
Enters shadow 19:40:57 14° 352° (N) 1,835 4.2 -32.3°
